[[{"header":{"parameterUnit":"m.s-1","parameterCategory":1,"la1":30.2992,"la2":30.254,"lo1":-89.0895,"lo2":-89.0443,"dy":0.0025,"dx":0.0025,"nx":19,"ny":19,"refTime":"2026-03-14T03:00:00:Z","depth":0,"parameterNumber":2,"parameterNumberName":"U-component_of_WINDS"},"data":[0,0,0,-2.5994,-2.5994,-2.5976,-2.5976,-2.5977,-2.5977,0,0,0,0,0,0,0,0,0,0,0,-2.6014,-2.6014,-2.5994,-2.5994,-2.5976,-2.5976,-2.5977,-2.5977,0,0,0,0,0,0,0,0,0,0,0,-2.6014,-2.6014,-2.6015,-2.5994,-2.5976,-2.5976,-2.5977,-2.5982,0,0,0,0,0,0,0,0,0,0,-2.5996,-2.6027,-2.6014,-2.6015,-2.5994,-2.5976,-2.5976,-2.5982,-2.5982,-2.5996,0,-2.6011,0,-2.5994,-2.5979,-2.5979,0,0,0,-2.5984,-2.6027,-2.601,-2.6015,-2.5994,-2.5976,-2.5982,-2.5982,-2.5982,-2.5996,-2.601,-2.601,-2.5994,-2.5979,-2.5979,-2.6089,-2.609,0,0,-2.5985,-2.6018,-2.601,-2.601,-2.6014,-2.5982,-2.5981,-2.5981,-2.6,-2.601,-2.6009,-2.5994,-2.5979,-2.5979,-2.6088,-2.6089,0,0,0,-2.5995,-2.6019,-2.6001,-2.6011,-2.6006,-2.5982,-2.5981,-2.6,-2.5991,-2.6009,-2.5994,-2.5979,-2.598,-2.6087,-2.6088,-2.6168,0,0,0,-2.5995,-2.6025,-2.6002,-2.6022,-2.6006,-2.6002,-2.6,-2.5991,-2.599,-2.5994,-2.5979,-2.598,-2.6086,-2.6088,-2.6163,-2.62,0,0,0,-2.601,-2.6026,-2.6028,-2.6024,-2.6017,-2.6002,-2.5993,-2.599,-2.5982,-2.5979,-2.598,-2.6085,-2.6087,-2.6159,-2.6193,-2.6238,0,0,0,-2.6036,-2.61,-2.603,-2.6097,-2.6018,-2.6051,-2.5992,-2.6016,-2.6023,-2.5979,-2.6086,-2.6088,-2.6158,-2.6189,-2.6234,-2.628,-2.6303,0,0,-2.6136,-2.6114,-2.615,-2.6087,-2.6141,-2.6051,-2.6118,-2.6094,-2.6064,-2.6083,-2.6085,-2.6165,-2.6193,-2.6237,-2.6421,-2.644,0,0,0,-2.6193,-2.6219,-2.6226,-2.6234,-2.6217,-2.6206,-2.6168,-2.6159,-2.6173,-2.608,-2.6193,-2.6208,-2.6233,-2.6253,-2.6269,-2.6288,-2.61,-2.6099,-2.6099,-2.638,-2.6338,-2.6395,-2.6351,-2.636,-2.6321,-2.6324,-2.6306,-2.6261,-2.6289,-2.6294,-2.6411,-2.6436,-2.6448,-2.6468,-2.6316,-2.6316,-2.6316,-2.6317,-2.6521,-2.6551,-2.6491,-2.6524,-2.648,-2.6508,-2.6473,-2.6441,-2.6461,-2.6404,-2.6423,-2.6363,-2.6469,-2.6484,-2.6322,-2.6321,-2.6321,-2.632,-2.632,-2.6638,-2.6645,-2.6633,-2.664,-2.6651,-2.6605,-2.6627,-2.6586,-2.6548,-2.6567,-2.6568,-2.6566,-2.6559,-2.6571,-2.6571,-2.6571,-2.6572,-2.6572,-2.6572,-2.6764,-2.6747,-2.677,-2.6758,-2.6758,-2.6752,-2.6714,-2.6713,-2.6701,-2.667,-2.667,-2.6623,-2.6488,-2.6454,-2.6578,-2.6577,-2.6576,-2.6576,-2.6576,-2.692,-2.6878,-2.6913,-2.6913,-2.6895,-2.6909,-2.6857,-2.6858,-2.6851,-2.6864,-2.6813,-2.672,-2.6694,-2.6682,-2.6653,-2.6822,-2.6822,-2.6822,-2.6822,-2.7018,-2.7001,-2.7028,-2.703,-2.7028,-2.6985,-2.7027,-2.6998,-2.6962,-2.6955,-2.6925,-2.6885,-2.6874,-2.6855,-2.6838,-2.6811,-2.7016,-2.7017,-2.7017,-2.7111,-2.7092,-2.7135,-2.7099,-2.7082,-2.7069,-2.7107,-2.7112,-2.7063,-2.7024,-2.6949,-2.6941,-2.6875,-2.6856,-2.6814,-2.6789,-2.6738,0,0]},{"header":{"parameterUnit":"m.s-1","parameterCategory":1,"la1":30.2992,"la2":30.254,"lo1":-89.0895,"lo2":-89.0443,"dy":0.0025,"dx":0.0025,"nx":19,"ny":19,"refTime":"2026-03-14T03:00:00:Z","depth":0,"parameterNumber":3,"parameterNumberName":"V-component_of_WINDS"},"data":[0,0,0,2.0458,2.0459,2.0465,2.0465,2.0474,2.0474,0,0,0,0,0,0,0,0,0,0,0,2.0456,2.0456,2.0458,2.0459,2.0465,2.0465,2.0474,2.0474,0,0,0,0,0,0,0,0,0,0,0,2.0456,2.0456,2.0456,2.0459,2.0465,2.0465,2.0474,2.0469,0,0,0,0,0,0,0,0,0,0,2.0462,2.046,2.0456,2.0456,2.0459,2.0465,2.0465,2.0468,2.0469,2.0471,0,2.0472,0,2.0473,2.0474,2.0474,0,0,0,2.0458,2.046,2.0462,2.0457,2.0459,2.0465,2.0462,2.0469,2.0469,2.0471,2.0472,2.0473,2.0473,2.0474,2.0474,2.0485,2.0485,0,0,2.0458,2.0457,2.0461,2.0462,2.0461,2.0462,2.0462,2.0469,2.047,2.0472,2.0473,2.0473,2.0474,2.0474,2.0485,2.0485,0,0,0,2.0457,2.0457,2.0459,2.0462,2.0463,2.0462,2.0463,2.047,2.047,2.0473,2.0473,2.0474,2.0475,2.0485,2.0485,2.0487,0,0,0,2.0457,2.0457,2.0459,2.0458,2.0463,2.0466,2.0463,2.047,2.0471,2.0473,2.0474,2.0475,2.0485,2.0485,2.0486,2.0487,0,0,0,2.0456,2.0457,2.0458,2.0458,2.0461,2.0466,2.0467,2.047,2.0471,2.0474,2.0475,2.0484,2.0485,2.0486,2.0487,2.049,0,0,0,2.0455,2.0459,2.0458,2.0463,2.0461,2.0468,2.0467,2.0472,2.0475,2.0474,2.0485,2.0485,2.0486,2.0487,2.049,2.0492,2.0493,0,0,2.046,2.046,2.0463,2.0462,2.0468,2.0467,2.0473,2.0477,2.0477,2.0482,2.0482,2.0486,2.0487,2.049,2.0499,2.05,0,0,0,2.0464,2.0466,2.0468,2.0471,2.0474,2.0476,2.0479,2.048,2.0484,2.048,2.0488,2.0489,2.049,2.0491,2.0492,2.0493,2.0485,2.0485,2.0485,2.047,2.0471,2.0476,2.0478,2.0481,2.0484,2.0486,2.0488,2.0488,2.0491,2.0492,2.0497,2.0498,2.0499,2.05,2.0493,2.0493,2.0493,2.0493,2.0477,2.048,2.0481,2.0486,2.0487,2.0491,2.0494,2.0494,2.0498,2.0496,2.0498,2.0495,2.05,2.0501,2.0493,2.0493,2.0493,2.0493,2.0493,2.0481,2.0483,2.0484,2.0489,2.0493,2.0495,2.0499,2.05,2.05,2.0502,2.0503,2.0503,2.0503,2.0503,2.0503,2.0503,2.0503,2.0503,2.0503,2.0484,2.0486,2.0489,2.0493,2.0495,2.0498,2.0502,2.0504,2.0506,2.0507,2.0507,2.0506,2.05,2.0498,2.0503,2.0503,2.0503,2.0503,2.0503,2.049,2.0489,2.0494,2.0497,2.0501,2.0505,2.0506,2.0511,2.0513,2.0515,2.0514,2.0509,2.0509,2.0509,2.0507,2.0514,2.0514,2.0514,2.0514,2.0493,2.0494,2.0499,2.0503,2.0507,2.0508,2.0514,2.0517,2.0519,2.052,2.052,2.0518,2.0517,2.0517,2.0517,2.0515,2.0524,2.0524,2.0524,2.0497,2.0498,2.0503,2.0505,2.0509,2.0512,2.0518,2.0522,2.0524,2.0524,2.0521,2.0521,2.0518,2.0517,2.0517,2.0516,2.0513,0,0]}]]